Location: Arrodets-la-Barthe
(43.0306°N, 0.2829°E)
Time: 11:07:01
(UTC+00:00)

FO-29 - Pass Details

Date: 03 April 2023
Orbit: 799 x 1322 km, 98.5° (Epoch: 09 June)

Event Time Altitude Azimuth Distance (km) Brightness Sun altitude
Rises 03:53:13 0° 21° (NNE) 4,243 13.6 -19.1°
Reaches altitude 10° 03:56:26 10° 32° (NNE) 3,213 13.1 -18.6°
Maximum altitude 04:02:45 30° 91° (E) 1,947 11.7 -17.5°
Drops below altitude 10° 04:08:27 10° 150° (SSE) 2,897 12.0 -16.6°
Sets 04:11:11 0° 161° (SSE) 3,766 12.5 -16.1°
